Location: Unspecified
(0.0000°N, 0.0000°E)
Time: 09:45:29
(UTC+00:00)

S-56A Canister/Altair - Visible Passes

Search period start: 30 May 2024 00:00
Search period end: 09 June 2024 00:00
Orbit: 638 x 2488 km, 38.9° (Epoch: 29 May)

Date Brightness Start Highest point End Pass type
(mag) Time Alt. Az. Time Alt. Az. Time Alt. Az.
30 May 11.1 00:42:57 28° NE 00:42:57 28° NE 00:48:23 10° NE visible
30 May 10.7 02:40:16 34° NW 02:40:24 34° NW 02:53:02 10° NNE visible
31 May 11.4 00:10:41 19° NE 00:10:41 19° NE 00:13:50 10° NE visible
31 May 10.6 02:08:00 37° NNW 02:08:00 37° NNW 02:19:08 10° NNE visible
31 May 11.5 04:10:30 10° NW 04:14:50 12° NNW 04:19:03 10° N visible
31 May 11.6 23:38:21 12° NE 23:38:21 12° NE 23:39:07 10° NE visible
01 Jun 10.7 01:35:39 37° N 01:35:39 37° N 01:45:05 10° NNE visible
01 Jun 11.4 03:33:15 10° WNW 03:40:00 14° NNW 03:46:36 10° N visible
02 Jun 10.9 01:03:14 33° NNE 01:03:14 33° NNE 01:10:55 10° NNE visible
02 Jun 11.3 03:00:33 14° NW 03:05:11 17° NNW 03:13:26 10° N visible
03 Jun 11.1 00:30:45 28° NNE 00:30:45 28° NNE 00:36:38 10° NE visible
03 Jun 11.2 02:28:02 19° NW 02:30:23 19° NNW 02:39:54 10° N visible
03 Jun 11.3 23:58:11 22° NNE 23:58:11 22° NNE 00:02:13 10° NE visible
04 Jun 11.1 01:55:28 22° NNW 01:55:36 22° NNW 02:06:09 10° NNE visible
04 Jun 11.5 23:25:31 16° NE 23:25:31 16° NE 23:27:43 10° NE visible
05 Jun 11.1 01:22:48 25° NNW 01:22:48 25° NNW 01:32:12 10° NNE visible
05 Jun 11.6 22:52:46 11° NE 22:52:46 11° NE 22:53:07 10° NE visible
06 Jun 11.1 00:50:02 25° N 00:50:02 25° N 00:58:07 10° NNE visible
07 Jun 11.1 00:17:09 25° N 00:17:09 25° N 00:23:56 10° NNE visible
07 Jun 11.7 02:19:29 10° NNW 02:21:35 10° NNW 02:23:41 10° NNW visible
07 Jun 10.2 19:21:51 10° S 19:22:41 12° SSE 19:22:41 12° SSE visible
07 Jun11.221:46:53NE21:46:53NE21:20:07SWvisible
07 Jun 11.2 23:44:08 23° N 23:44:08 23° N 23:49:39 10° NNE visible
08 Jun 11.6 01:42:03 10° NW 01:46:36 12° NNW 01:51:19 10° N visible
08 Jun 10.1 18:50:38 10° SSE 18:51:55 11° SE 18:51:55 11° SE visible
08 Jun 10.5 20:48:36 10° SW 20:49:22 14° SW 20:49:22 14° SW visible
08 Jun 11.2 23:10:55 21° NNE 23:10:55 21° NNE 23:15:17 10° NNE visible
